Waarnemingen

Advertentie
Mijn weer
Yeovilton, Groot Brittannië (3853): temperatuur & dauwpunt: 15.02.2018 13:00:00 - 21.02.2018 13:00:00 (GMT)Yeovilton, Groot Brittannië (3853): temperatuur -20cm & temperatuur -100cm: 15.02.2018 13:00:00 - 21.02.2018 13:00:00 (GMT)Yeovilton, Groot Brittannië (3853): windsnelheid & windstoten: 15.02.2018 13:00:00 - 21.02.2018 13:00:00 (GMT)Yeovilton, Groot Brittannië (3853): windrichting: 15.02.2018 13:00:00 - 21.02.2018 13:00:00 (GMT)Yeovilton, Groot Brittannië (3853): luchtdruk: 15.02.2018 13:00:00 - 21.02.2018 13:00:00 (GMT)Yeovilton, Groot Brittannië (3853): zicht: 15.02.2018 13:00:00 - 21.02.2018 13:00:00 (GMT)Yeovilton, Groot Brittannië (3853): Zonneschijnduur: 15.02.2018 13:00:00 - 21.02.2018 13:00:00 (GMT)Yeovilton, Groot Brittannië (3853): neerslag: 15.02.2018 13:00:00 - 21.02.2018 13:00:00 (GMT)
Datum & Tijd tt [°C] td [°C] tt -20cm [°C] tt -100cm [°C] ff [km/u] ff [kn] fx [km/u] fx [kn] dd ppp [hPa] vv [km] sd [min] rr [mm]
21.02.2018 13:00:00 - - - - - - - - - - - - -
21.02.2018 12:00:00 7,1 0,3 - - 11 6 - - ONO 1027,8 7 60 0,0
21.02.2018 11:00:00 6,1 0,6 - - 11 6 - - ONO 1028,1 7 60 0,0
21.02.2018 10:00:00 5,3 0,7 - - 15 8 - - ONO 1028,2 8 54 0,0
21.02.2018 09:00:00 4,5 1,5 6,4 6,7 13 7 - - ONO 1027,9 9 42 0,0
21.02.2018 08:00:00 4,2 2,0 - - 9 5 - - NO 1027,7 10 0 0,0
21.02.2018 07:00:00 4,6 1,7 - - 11 6 - - NO 1027,6 10 0 0,0
21.02.2018 06:00:00 5,7 2,8 - - 16 9 - - ONO 1027,2 15 0 0,0
21.02.2018 05:00:00 6,1 3,5 - - 15 8 - - NNO 1026,6 15 0 0,0
21.02.2018 04:00:00 6,3 2,9 - - 13 7 - - NNO 1026,5 10 0 0,0
21.02.2018 03:00:00 6,6 2,4 - - 15 8 - - N 1026,5 10 0 0,0
21.02.2018 02:00:00 6,7 2,3 - - 15 8 - - N 1026,4 10 0 0,0
21.02.2018 01:00:00 7,0 2,1 - - 11 6 - - NNW 1026,6 10 0 0,0
21.02.2018 00:00:00 6,9 2,4 - - 13 7 - - NNW 1026,4 10 - 0,0
20.02.2018 23:00:00 6,7 2,0 - - 16 9 - - NNW 1026,1 10 0 0,0
20.02.2018 22:00:00 7,3 1,8 - - 21 11 - - NNW 1025,9 10 0 0,0
20.02.2018 21:00:00 7,3 1,8 - - 18 10 - - NW 1025,9 10 0 0,0
20.02.2018 20:00:00 7,3 1,0 - - 22 12 - - NNW 1025,6 10 0 0,0
20.02.2018 19:00:00 7,7 0,8 - - 18 10 - - NNW 1025,0 10 0 0,0
20.02.2018 18:00:00 8,1 0,6 - - 16 9 - - N 1024,7 10 18 0,0
20.02.2018 17:00:00 9,7 0,4 - - 24 13 - - N 1023,9 10 60 0,0
20.02.2018 16:00:00 10,3 0,0 - - 28 15 - - NNW 1023,5 10 60 0,0
20.02.2018 15:00:00 10,5 0,1 - - 26 14 - - N 1023,3 25 60 0,0
20.02.2018 14:00:00 10,4 1,0 - - 28 15 46 25 NNW 1023,3 10 48 0,0
20.02.2018 13:00:00 10,0 0,7 - - 34 18 - - NNW 1024,0 25 48 0,0
20.02.2018 12:00:00 9,5 1,7 - - 26 14 48 26 NNW 1024,4 10 36 0,0
20.02.2018 11:00:00 9,2 1,7 - - 35 19 46 25 NNW 1023,7 10 48 0,0
20.02.2018 10:00:00 8,5 2,6 - - 22 12 - - NNW 1023,7 10 60 0,0
20.02.2018 09:00:00 7,8 1,5 6,7 6,5 28 15 - - NW 1023,3 10 60 0,0
20.02.2018 08:00:00 7,7 2,9 - - 21 11 - - NNW 1022,4 10 6 0,0
20.02.2018 07:00:00 8,1 5,3 - - 26 14 - - NNW 1021,3 10 0 0,0
20.02.2018 06:00:00 8,4 6,2 - - 24 13 - - NW 1020,8 10 0 0,0
20.02.2018 05:00:00 8,4 7,0 - - 16 9 - - NW 1020,4 7 0 0,0
20.02.2018 04:00:00 8,2 7,1 - - 21 11 - - NW 1020,1 10 0 0,0
20.02.2018 03:00:00 7,3 6,4 - - 21 11 - - NW 1020,0 8 0 0,0
20.02.2018 02:00:00 7,4 6,5 - - 16 9 - - NW 1020,0 8 0 0,0
20.02.2018 01:00:00 7,8 6,5 - - 16 9 - - NW 1019,9 10 0 0,0
20.02.2018 00:00:00 8,4 6,9 - - 16 9 - - WNW 1019,8 10 - 0,0
19.02.2018 23:00:00 9,4 7,3 - - 13 7 - - NW 1019,5 10 0 0,0
19.02.2018 22:00:00 9,4 7,6 - - 18 10 - - NW 1019,2 10 0 0,0
19.02.2018 21:00:00 9,0 7,8 - - 13 7 - - NW 1019,0 10 0 0,0
19.02.2018 20:00:00 9,3 8,0 - - 18 10 - - NW 1019,0 10 0 0,0
19.02.2018 19:00:00 9,6 8,2 - - 18 10 - - NW 1018,8 10 0 0,0
19.02.2018 18:00:00 10,0 8,6 - - 21 11 - - NW 1018,7 6 0 0,0
19.02.2018 17:00:00 10,4 8,9 - - 18 10 - - NW 1018,3 7 0 0,0
19.02.2018 16:00:00 10,6 9,1 - - 16 9 - - WNW 1018,1 6 0 0,0
19.02.2018 15:00:00 10,8 9,4 - - 18 10 - - NW 1018,2 4,0 0 0,0
19.02.2018 14:00:00 10,8 9,4 - - 22 12 - - WNW 1018,2 4,0 0 0,0
19.02.2018 13:00:00 11,0 9,4 - - 21 11 - - NW 1018,3 3,5 0 0,0
19.02.2018 12:00:00 10,3 9,3 - - 18 10 - - NW 1018,7 2,5 0 0,0
19.02.2018 11:00:00 10,1 9,3 - - 18 10 - - NW 1018,5 2,0 0 0,0
19.02.2018 10:00:00 8,8 8,8 - - 2 1 - - ZO 1018,5 1,5 0 0,0
19.02.2018 09:00:00 8,1 8,0 6,0 6,4 4 2 - - ZZW 1018,4 0,2 0 0,0
19.02.2018 08:00:00 7,8 7,7 - - 2 1 - - NO 1018,6 0,2 0 0,0
19.02.2018 07:00:00 7,8 7,6 - - 4 2 - - ZW 1018,1 0,3 0 0,0
19.02.2018 06:00:00 7,5 7,4 - - 2 1 - - WZW 1018,0 2,5 0 0,0
19.02.2018 05:00:00 7,4 7,3 - - 0 0 - - N 1017,9 3,0 0 0,0
19.02.2018 04:00:00 7,5 7,3 - - 5 3 - - ZW 1018,1 2,0 0 0,0
19.02.2018 03:00:00 7,2 7,0 - - 2 1 - - WZW 1018,6 2,0 0 0,2
19.02.2018 02:00:00 7,2 7,0 - - 2 1 - - ZW 1018,9 2,8 0 0,4
19.02.2018 01:00:00 7,0 6,8 - - 2 1 - - Z 1019,3 3,6 0 0,2
19.02.2018 00:00:00 7,0 6,8 - - 4 2 - - ZO 1019,6 4,6 - 0,0
18.02.2018 23:00:00 7,1 6,8 - - 4 2 - - Z 1019,8 7 0 0,0
18.02.2018 22:00:00 7,1 6,7 - - 4 2 - - ZZO 1020,0 6 0 0,2
18.02.2018 21:00:00 7,3 6,7 - - 4 2 - - ZZO 1020,0 8 0 0,0
18.02.2018 20:00:00 7,5 6,6 - - 9 5 - - ZO 1020,2 20 0 0,0
18.02.2018 19:00:00 7,7 6,8 - - 8 4 - - ZO 1020,3 20 0 0,0
18.02.2018 18:00:00 8,2 6,8 - - 11 6 - - ZZO 1020,3 10 0 0,0
18.02.2018 17:00:00 8,4 7,1 - - 11 6 - - ZO 1020,0 45 0 0,0
18.02.2018 16:00:00 8,8 7,4 - - 13 7 - - ZO 1019,7 21 0 0,0
18.02.2018 15:00:00 9,0 7,2 - - 15 8 - - ZO 1019,9 40 0 0,0
18.02.2018 14:00:00 8,8 7,4 - - 15 8 - - ZO 1019,8 9 0 0,0
18.02.2018 13:00:00 8,3 7,3 - - 15 8 - - ZZO 1020,3 18 0 0,0
18.02.2018 12:00:00 8,2 6,9 - - 16 9 - - ZZO 1020,5 11 0 0,0
18.02.2018 11:00:00 8,0 7,1 - - 15 8 - - ZO 1020,3 17 0 0,0
18.02.2018 10:00:00 7,8 6,6 - - 16 9 - - ZO 1020,2 16 0 0,0
18.02.2018 09:00:00 7,5 6,4 5,2 6,2 13 7 - - ZO 1020,7 10 0 0,0
18.02.2018 08:00:00 7,1 5,9 - - 13 7 - - ZO 1020,6 40 0 0,0
18.02.2018 07:00:00 6,8 5,5 - - 15 8 - - OZO 1020,4 40 0 0,0
18.02.2018 06:00:00 7,0 5,2 - - 15 8 - - ZZO 1020,6 10 0 0,0
18.02.2018 05:00:00 7,1 5,0 - - 11 6 - - ZZO 1020,4 40 0 0,0
18.02.2018 04:00:00 6,4 5,1 - - 11 6 - - ZO 1020,5 45 0 0,0
18.02.2018 03:00:00 6,3 5,1 - - 9 5 - - ZO 1021,1 10 0 0,0
18.02.2018 02:00:00 6,3 4,8 - - 9 5 - - ZO 1021,9 30 0 0,0
18.02.2018 01:00:00 6,4 4,8 - - 11 6 - - ZZO 1021,7 10 0 0,0
18.02.2018 00:00:00 7,0 5,7 - - 13 7 - - Z 1021,9 26 - 0,0
17.02.2018 23:00:00 6,1 5,4 - - 11 6 - - ZO 1022,0 16 0 0,0
17.02.2018 22:00:00 6,2 5,5 - - 8 4 - - ZZO 1022,2 13 0 0,0
17.02.2018 21:00:00 7,3 5,8 - - 9 5 - - Z 1022,2 23 0 0,0
17.02.2018 20:00:00 7,2 5,7 - - 13 7 - - Z 1022,1 29 0 0,0
17.02.2018 19:00:00 5,5 4,1 - - 2 1 - - Z 1022,3 29 0 0,0
17.02.2018 18:00:00 6,7 4,2 - - 8 4 - - Z 1022,1 10 0 0,0
17.02.2018 17:00:00 8,6 4,9 - - 15 8 - - ZZW 1022,0 50 0 0,0
17.02.2018 16:00:00 10,1 4,4 - - 0 0 - - N 1021,7 30 30 0,0
17.02.2018 15:00:00 10,8 4,5 - - 4 2 - - ZW 1021,8 45 60 0,0
17.02.2018 14:00:00 9,7 4,1 - - 9 5 - - W 1022,2 50 48 0,0
17.02.2018 13:00:00 8,6 4,6 - - 16 9 - - W 1022,6 50 6 0,0
17.02.2018 12:00:00 8,6 3,5 - - 13 7 - - ZW 1022,6 35 0 0,0
17.02.2018 11:00:00 8,4 5,1 - - 8 4 - - ZZW 1022,1 10 6 0,0
17.02.2018 10:00:00 6,3 3,7 - - 8 4 - - Z 1021,9 19 30 0,0
17.02.2018 09:00:00 3,8 2,4 4,4 6,4 11 6 - - OZO 1021,4 19 48 0,0
17.02.2018 08:00:00 0,4 0,2 - - 5 3 - - OZO 1021,5 10 6 0,0
17.02.2018 07:00:00 0,1 -0,3 - - 8 4 - - OZO 1020,9 10 0 0,0
17.02.2018 06:00:00 0,7 0,5 - - 8 4 - - OZO 1020,8 7 0 0,0
17.02.2018 05:00:00 2,5 2,1 - - 4 2 - - OZO 1020,6 12 0 0,0
17.02.2018 04:00:00 2,5 2,0 - - 5 3 - - OZO 1020,6 13 0 0,0
17.02.2018 03:00:00 2,1 1,5 - - 9 5 - - O 1020,5 21 0 0,0
17.02.2018 02:00:00 1,5 1,0 - - 8 4 - - OZO 1020,9 20 0 0,0
17.02.2018 01:00:00 1,5 0,9 - - 4 2 - - ZO 1021,3 16 0 0,0
17.02.2018 00:00:00 2,8 1,7 - - 8 4 - - OZO 1021,5 23 - 0,0
16.02.2018 23:00:00 3,2 2,2 - - 5 3 - - OZO 1021,7 20 0 0,0
16.02.2018 22:00:00 3,2 2,2 - - 8 4 - - OZO 1022,1 22 0 0,0
16.02.2018 21:00:00 3,1 1,9 - - 8 4 - - ZO 1022,6 35 0 0,0
16.02.2018 20:00:00 3,3 1,7 - - 5 3 - - ZZO 1022,5 10 0 0,0
16.02.2018 19:00:00 5,0 2,2 - - 13 7 - - ZZO 1022,8 10 0 0,0
16.02.2018 18:00:00 5,8 2,3 - - 16 9 - - ZZO 1022,9 10 0 0,0
16.02.2018 17:00:00 7,4 2,5 - - 15 8 - - ZZO 1023,3 10 18 0,0
16.02.2018 16:00:00 8,5 1,4 - - 13 7 - - Z 1023,5 20 48 0,0
16.02.2018 15:00:00 9,5 2,4 - - 13 7 - - ZZW 1024,1 10 36 0,0
16.02.2018 14:00:00 8,9 1,1 - - 18 10 - - Z 1024,6 10 54 0,0
16.02.2018 13:00:00 9,6 1,4 - - 16 9 - - Z 1025,2 10 60 0,0
16.02.2018 12:00:00 8,9 2,5 - - 11 6 - - ZZW 1025,6 15 60 0,0
16.02.2018 11:00:00 8,2 3,4 - - 13 7 - - ZZW 1026,1 10 60 0,0
16.02.2018 10:00:00 5,5 2,3 - - 5 3 - - OZO 1025,9 10 60 0,0
16.02.2018 09:00:00 1,4 0,6 4,7 6,2 5 3 - - OZO 1025,7 10 60 0,0
16.02.2018 08:00:00 -1,4 -1,8 - - 5 3 - - O 1025,5 15 0 0,0
16.02.2018 07:00:00 -2,2 -2,9 - - 2 1 - - ZZO 1024,9 10 0 0,0
16.02.2018 06:00:00 -1,2 -2,2 - - 2 1 - - OZO 1024,5 10 0 0,0
16.02.2018 05:00:00 1,1 -0,2 - - 5 3 - - WZW 1023,8 10 0 0,0
16.02.2018 04:00:00 2,7 0,7 - - 9 5 - - WZW 1023,5 10 0 0,0
16.02.2018 03:00:00 2,7 0,8 - - 11 6 - - ZW 1023,0 10 0 0,0
16.02.2018 02:00:00 2,3 0,6 - - 9 5 - - ZW 1022,6 10 0 0,0
16.02.2018 01:00:00 2,6 0,4 - - 11 6 - - ZW 1021,8 10 0 0,0
16.02.2018 00:00:00 3,4 0,6 - - 9 5 - - ZW 1021,4 10 - 0,0
15.02.2018 23:00:00 3,8 0,7 - - 11 6 - - WZW 1021,1 10 0 0,0
15.02.2018 22:00:00 4,1 0,9 - - 9 5 - - ZW 1020,1 10 0 0,0
15.02.2018 21:00:00 4,2 0,7 - - 15 8 - - WZW 1019,3 10 0 0,0
15.02.2018 20:00:00 4,5 -0,8 - - 4 2 - - Z 1018,7 10 0 0,0
15.02.2018 19:00:00 5,1 -0,8 - - 8 4 - - WZW 1017,9 10 0 0,0
15.02.2018 18:00:00 5,7 -1,0 - - 9 5 - - WZW 1017,0 10 6 0,0
15.02.2018 17:00:00 6,6 -0,3 - - 18 10 - - W 1016,2 10 36 0,0
15.02.2018 16:00:00 7,9 0,0 - - 21 11 - - W 1015,4 10 24 0,0
15.02.2018 15:00:00 8,2 0,7 - - 22 12 46 25 W 1014,4 10 42 0,0
15.02.2018 14:00:00 8,6 -0,7 - - 28 15 - - W 1013,6 10 24 0,0
15.02.2018 13:00:00 9,1 0,2 - - 29 16 46 25 W 1013,1 10 54 0,0

tt = temperatuur
td = dauwpunt
tt -20cm = temperatuur -20cm
tt -100cm = temperatuur -100cm
ff = windsnelheid
fx = windstoten
dd = windrichting
ppp = luchtdruk
vv = zicht
sd = Zonneschijnduur
rr = neerslag

Weerstations in de omgeving